Cloud_Cover
100 100 97 29 58 85 98 13 100 100 74 100 100 100 90 16 24 3 2 8 8 53 98 5 94 50 2 0 3 5 40 97 52 1 0 0 0 0 0 0 0 0 0 0 0
100 100 8 12 12 22 29 19 100 100 100 83 34 23 24 14 0 0 0 2 2 1 2 0 1 8 2 2 3 0 4 6 5 2 0 2 2 0 0 0 0 0 0 0 0
100 100 32 6 16 12 0 5 100 100 100 100 77 6 9 0 0 0 0 0 0 0 0 0 0 0 0 0 0 0 0 0 0 0 0 1 5 5 3 0 0 0 0 0 0
100 96 48 2 10 5 4 2 27 58 67 20 95 99 8 19 8 1 0 0 0 0 0 0 0 0 0 3 5 0 0 0 0 0 0 0 0 1 0 0 0 0 0 0 0
100 66 17 39 18 0 2 53 83 25 52 72 52 100 55 75 84 8 0 0 0 0 0 0 0 0 0 0 0 0 0 0 0 0 0 0 0 0 0 0 0 0 0 0 0
97 29 12 11 0 0 0 1 77 97 77 100 38 2 14 61 0 0 0 0 0 0 0 0 0 0 0 0 0 0 0 0 0 0 0 0 0 0 0 0 0 0 0 0 0
98 16 10 0 0 0 0 0 0 0 0 0 0 0 0 0 0 0 0 0 0 0 0 0 0 0 0 0 0 0 0 0 0 0 0 0 0 0 0 0 0 0 0 0 0
100 39 10 0 0 0 0 0 0 0 0 0 0 0 0 0 0 0 0 0 0 0 0 0 0 0 0 0 0 0 0 0 0 0 0 0 0 0 0 0 0 0 0 0 0
100 94 4 0 0 0 0 0 0 0 0 0 0 0 0 0 0 0 0 0 0 0 0 0 0 0 0 0 0 0 0 0 0 0 0 0 0 0 0 0 0 0 0 0 0
100 65 1 0 0 0 0 0 0 0 0 0 0 0 0 0 0 0 0 0 0 0 0 0 0 0 0 0 0 0 0 0 0 0 0 0 0 0 0 0 0 0 0 0 0
100 12 0 0 0 0 0 0 0 0 0 0 0 0 0 0 0 0 0 0 0 0 0 0 0 0 0 0 0 0 0 0 0 0 0 0 0 0 0 0 0 0 0 0 0
100 0 0 0 0 0 0 0 0 0 0 0 0 0 0 0 0 0 0 0 0 0 0 0 0 0 0 0 0 0 0 0 0 0 0 0 0 0 0 0 0 0 0 0 0
97 0 0 0 0 0 0 0 0 0 0 0 0 0 0 0 0 0 0 0 0 0 0 0 0 0 0 0 0 0 0 0 0 0 0 0 0 0 0 0 0 0 0 0 0
56 0 0 0 0 0 0 0 0 0 0 0 0 0 0 0 0 0 0 0 0 0 0 0 0 0 0 0 0 0 0 0 0 0 0 2 14 0 0 0 0 0 0 0 0
66 0 0 0 0 0 0 0 0 0 0 0 0 0 0 0 0 0 0 0 0 0 0 0 0 0 0 0 0 0 0 0 0 0 2 4 3 0 0 5 0 0 0 0 0
48 0 0 0 0 0 0 0 0 0 0 0 0 0 0 0 0 0 0 0 0 0 0 0 0 0 0 0 0 0 1 0 0 0 0 0 2 0 0 0 0 0 0 0 0
19 0 0 0 0 0 0 0 0 0 0 0 0 0 0 0 0 0 0 0 0 0 0 0 0 0 0 0 0 4 5 4 5 5 4 0 3 0 1 1 0 0 0 0 0
0 0 0 0 0 0 0 0 0 0 0 0 0 0 0 0 0 0 0 0 0 0 4 22 4 0 0 5 5 0 4 10 96 6 4 4 5 0 0 0 4 0 0 0 0
0 0 0 0 0 0 0 0 0 0 0 0 0 0 0 0 0 0 0 0 0 0 5 43 9 0 2 0 5 5 5 5 92 6 81 8 0 0 10 100 7 41 19 6 0
0 0 0 0 0 0 0 0 0 0 0 0 0 0 0 0 0 0 0 0 0 4 40 71 96 3 4 0 4 10 14 8 57 89 78 4 5 5 18 28 43 34 46 91 4
0 0 0 0 0 0 0 0 0 0 0 0 0 0 0 0 0 0 0 0 0 5 100 100 86 11 6 4 5 40 29 92 96 100 99 69 7 21 5 72 86 100 90 89 97
0 0 0 0 0 0 0 0 0 0 0 0 0 0 0 0 0 0 0 0 0 13 78 78 94 72 39 2 5 100 82 100 100 72 100 100 23 89 60 99 20 99 100 100 88
0 0 0 0 0 0 0 0 0 1 0 0 0 0 0 0 0 0 0 0 0 4 5 36 98 100 68 17 48 100 100 100 86 96 100 100 22 97 99 100 98 100 100 100 92
0 0 0 0 0 0 0 3 5 4 0 0 0 0 0 0 0 0 0 0 2 0 5 100 100 100 100 20 73 98 100 100 100 100 95 94 51 98 95 83 100 100 100 100 100
0 0 0 0 0 1 5 18 4 5 4 5 0 3 4 3 0 0 0 0 0 2 5 94 100 100 92 100 70 100 100 100 100 100 100 39 89 100 54 34 100 13 100 83 6
0 0 5 4 5 5 5 3 5 5 5 5 15 11 5 3 0 2 0 1 5 4 86 100 100 100 100 17 100 100 100 100 100 77 96 99 22 100 83 49 100 13 35 75 95
15 20 5 4 5 1 5 3 5 43 4 21 16 4 0 0 0 0 0 0 0 22 100 100 100 100 100 27 100 100 100 82 100 78 100 100 88 100 100 75 66 54 100 99 98